When you browse on this site, cookies collect data to enhance your experience and personalize the content and advertising you see.
Visit our Privacy Policy to learn more. By continuing to use the site, you agree to this use of cookies and data.
  • In Sweden
  • List of Countries
  • For 7 days
  • Water Temperature
  • Weather Map
  • Weather Widgets
  • user-avatar
    Login

    Hourly Weather Tuzla

    Today, 24 August, Saturday

    Time Temperature Precipitation Wind Pressure Humidity
    00:00 +19°C° 0 mm 0 mps 725 mmHg 86%
    01:00 +19°C° 0 mm 0 mps 725 mmHg 87%
    02:00 +20°C° 0 mm 1 mps 725 mmHg 88%
    03:00 +20°C° 0 mm 1 mps 725 mmHg 88%
    04:00 +20°C° 0 mm 1 mps 725 mmHg 88%
    05:00 +21°C° 0 mm 1 mps 725 mmHg 85%
    06:00 +22°C° 0 mm 1 mps 725 mmHg 82%
    07:00 +21°C° 0 mm 0 mps 725 mmHg 79%
    08:00 +26°C° 0 mm 1 mps 725 mmHg 68%
    09:00 +28°C° 0 mm 1 mps 726 mmHg 57%
    10:00 +31°C° 0 mm 1 mps 726 mmHg 46%
    11:00 +32°C° 0 mm 1 mps 725 mmHg 43%
    12:00 +32°C° 0 mm 2 mps 725 mmHg 40%
    13:00 +34°C° 0 mm 2 mps 725 mmHg 36%
    14:00 +32°C° 0 mm 2 mps 725 mmHg 39%
    15:00 +31°C° 0 mm 1 mps 724 mmHg 41%
    16:00 +31°C° 0 mm 1 mps 724 mmHg 43%
    17:00 +28°C° 0.2 mm 1 mps 724 mmHg 54%
    18:00 +25°C° 0.2 mm 1 mps 724 mmHg 65%
    19:00 +23°C° 0.2 mm 2 mps 724 mmHg 76%
    20:00 +22°C° 0.1 mm 1 mps 724 mmHg 80%
    21:00 +21°C° 0.1 mm 1 mps 724 mmHg 84%
    22:00 +21°C° 0.1 mm 1 mps 724 mmHg 87%
    23:00 +21°C° 0 mm 1 mps 724 mmHg 88%

    Tomorrow, 25 August, Sunday

    Time Temperature Precipitation Wind Pressure Humidity
    00:00 +20°C° 0 mm 1 mps 724 mmHg 88%
    01:00 +20°C° 0 mm 1 mps 723 mmHg 88%
    02:00 +20°C° 0.1 mm 1 mps 723 mmHg 89%
    03:00 +19°C° 0.1 mm 1 mps 723 mmHg 90%
    04:00 +19°C° 0.1 mm 1 mps 723 mmHg 90%
    05:00 +18°C° 0.1 mm 0 mps 723 mmHg 88%
    06:00 +19°C° 0.1 mm 0 mps 723 mmHg 85%
    07:00 +20°C° 0.1 mm 0 mps 723 mmHg 82%
    08:00 +23°C° 0.1 mm 0 mps 724 mmHg 73%
    09:00 +27°C° 0.1 mm 1 mps 724 mmHg 64%
    10:00 +29°C° 0.1 mm 1 mps 724 mmHg 54%
    11:00 +30°C° 0.2 mm 1 mps 724 mmHg 52%
    12:00 +31°C° 0.2 mm 1 mps 724 mmHg 49%
    13:00 +32°C° 0.2 mm 1 mps 724 mmHg 47%
    14:00 +32°C° 0.3 mm 1 mps 723 mmHg 48%
    15:00 +31°C° 0.3 mm 1 mps 723 mmHg 49%
    16:00 +31°C° 0.3 mm 1 mps 723 mmHg 50%
    17:00 +28°C° 1.3 mm 2 mps 723 mmHg 62%
    18:00 +25°C° 1.3 mm 2 mps 723 mmHg 74%
    19:00 +21°C° 1.3 mm 2 mps 723 mmHg 86%
    20:00 +21°C° 0.7 mm 2 mps 723 mmHg 87%
    21:00 +21°C° 0.7 mm 1 mps 723 mmHg 89%
    22:00 +21°C° 0.7 mm 1 mps 723 mmHg 90%
    23:00 +20°C° 0 mm 1 mps 723 mmHg 90%

    Day after tomorrow, 26 August, Monday

    Time Temperature Precipitation Wind Pressure Humidity
    00:00 +20°C° 0 mm 1 mps 723 mmHg 90%
    01:00 +19°C° 0 mm 1 mps 723 mmHg 90%
    02:00 +19°C° 0 mm 1 mps 723 mmHg 89%
    03:00 +19°C° 0 mm 1 mps 722 mmHg 89%
    04:00 +18°C° 0 mm 1 mps 722 mmHg 89%
    05:00 +19°C° 0 mm 1 mps 722 mmHg 87%
    06:00 +20°C° 0 mm 1 mps 723 mmHg 84%
    07:00 +21°C° 0 mm 1 mps 723 mmHg 81%
    08:00 +24°C° 0 mm 1 mps 723 mmHg 71%
    09:00 +27°C° 0 mm 1 mps 724 mmHg 61%
    10:00 +30°C° 0 mm 1 mps 724 mmHg 51%
    11:00 +31°C° 0 mm 1 mps 724 mmHg 48%
    12:00 +31°C° 0 mm 1 mps 724 mmHg 44%
    13:00 +32°C° 0 mm 1 mps 724 mmHg 41%
    14:00 +32°C° 0 mm 1 mps 723 mmHg 42%
    15:00 +31°C° 0 mm 2 mps 723 mmHg 44%
    16:00 +31°C° 0 mm 2 mps 723 mmHg 45%
    17:00 +28°C° 0.4 mm 2 mps 723 mmHg 57%
    18:00 +25°C° 0.4 mm 2 mps 723 mmHg 68%
    19:00 +21°C° 0.4 mm 2 mps 723 mmHg 80%
    20:00 +21°C° 0.8 mm 2 mps 723 mmHg 84%
    21:00 +20°C° 0.8 mm 2 mps 723 mmHg 87%
    22:00 +20°C° 0.8 mm 1 mps 723 mmHg 91%
    23:00 +20°C° 0 mm 1 mps 723 mmHg 90%

    27 August, Tuesday

    Time Temperature Precipitation Wind Pressure Humidity
    00:00 +19°C° 0 mm 1 mps 723 mmHg 90%
    01:00 +19°C° 0 mm 1 mps 723 mmHg 89%
    02:00 +19°C° 0 mm 1 mps 723 mmHg 88%
    03:00 +19°C° 0 mm 1 mps 723 mmHg 87%
    04:00 +19°C° 0 mm 1 mps 723 mmHg 85%
    05:00 +20°C° 0 mm 1 mps 723 mmHg 83%
    06:00 +21°C° 0 mm 1 mps 723 mmHg 81%
    07:00 +20°C° 0 mm 0 mps 724 mmHg 79%
    08:00 +24°C° 0 mm 1 mps 724 mmHg 69%
    09:00 +27°C° 0 mm 1 mps 724 mmHg 59%
    10:00 +29°C° 0 mm 1 mps 725 mmHg 49%
    11:00 +30°C° 0 mm 1 mps 724 mmHg 46%
    12:00 +31°C° 0 mm 1 mps 724 mmHg 44%
    13:00 +32°C° 0 mm 1 mps 724 mmHg 41%
    14:00 +32°C° 0 mm 1 mps 724 mmHg 41%
    15:00 +31°C° 0 mm 1 mps 724 mmHg 42%
    16:00 +31°C° 0 mm 1 mps 723 mmHg 43%
    17:00 +29°C° 0 mm 1 mps 723 mmHg 49%
    18:00 +26°C° 0 mm 1 mps 723 mmHg 56%
    19:00 +24°C° 0 mm 1 mps 723 mmHg 63%
    20:00 +23°C° 0 mm 1 mps 723 mmHg 66%
    21:00 +23°C° 0 mm 1 mps 723 mmHg 69%
    22:00 +22°C° 0 mm 1 mps 723 mmHg 72%
    23:00 +22°C° 0 mm 1 mps 723 mmHg 74%

    28 August, Wednesday

    Time Temperature Precipitation Wind Pressure Humidity
    00:00 +21°C° 0 mm 1 mps 723 mmHg 75%
    01:00 +21°C° 0 mm 1 mps 723 mmHg 76%
    02:00 +21°C° 0 mm 1 mps 723 mmHg 77%
    03:00 +20°C° 0 mm 1 mps 723 mmHg 77%
    04:00 +20°C° 0 mm 1 mps 723 mmHg 78%
    05:00 +21°C° 0 mm 1 mps 723 mmHg 75%
    06:00 +22°C° 0 mm 1 mps 723 mmHg 72%
    07:00 +23°C° 0 mm 1 mps 723 mmHg 69%
    08:00 +26°C° 0 mm 1 mps 723 mmHg 60%
    09:00 +29°C° 0 mm 1 mps 723 mmHg 51%
    10:00 +31°C° 0 mm 1 mps 724 mmHg 42%
    11:00 +32°C° 0 mm 1 mps 723 mmHg 40%
    12:00 +33°C° 0 mm 1 mps 723 mmHg 38%
    13:00 +33°C° 0 mm 1 mps 723 mmHg 36%
    14:00 +32°C° 0 mm 1 mps 722 mmHg 39%
    15:00 +31°C° 0 mm 1 mps 722 mmHg 43%
    16:00 +30°C° 0 mm 2 mps 721 mmHg 46%
    17:00 +28°C° 0.1 mm 1 mps 721 mmHg 53%
    18:00 +26°C° 0.1 mm 1 mps 721 mmHg 59%
    19:00 +24°C° 0.1 mm 1 mps 721 mmHg 66%
    20:00 +24°C° 0.1 mm 1 mps 721 mmHg 68%
    21:00 +23°C° 0.1 mm 1 mps 721 mmHg 71%
    22:00 +22°C° 0.1 mm 1 mps 721 mmHg 73%
    23:00 +22°C° 0 mm 1 mps 721 mmHg 74%

    29 August, Thursday

    Time Temperature Precipitation Wind Pressure Humidity
    00:00 +21°C° 0 mm 1 mps 720 mmHg 75%
    01:00 +21°C° 0 mm 1 mps 720 mmHg 76%
    02:00 +21°C° 0 mm 1 mps 720 mmHg 76%
    03:00 +21°C° 0 mm 1 mps 720 mmHg 75%
    04:00 +21°C° 0 mm 1 mps 720 mmHg 74%
    05:00 +22°C° 0 mm 1 mps 720 mmHg 73%
    06:00 +23°C° 0 mm 1 mps 720 mmHg 72%
    07:00 +24°C° 0 mm 1 mps 720 mmHg 71%
    08:00 +26°C° 0 mm 1 mps 720 mmHg 62%
    09:00 +27°C° 0 mm 0 mps 721 mmHg 53%
    10:00 +30°C° 0 mm 0 mps 721 mmHg 45%
    11:00 +32°C° 0 mm 1 mps 721 mmHg 43%
    12:00 +32°C° 0 mm 1 mps 720 mmHg 41%
    13:00 +33°C° 0 mm 1 mps 720 mmHg 40%
    14:00 +29°C° 2.5 mm 2 mps 720 mmHg 53%
    15:00 +26°C° 2.5 mm 3 mps 719 mmHg 65%
    16:00 +22°C° 2.5 mm 4 mps 718 mmHg 78%
    17:00 +21°C° 0.8 mm 3 mps 719 mmHg 82%
    18:00 +20°C° 0.8 mm 2 mps 719 mmHg 86%
    19:00 +20°C° 0.8 mm 1 mps 719 mmHg 90%
    20:00 +20°C° 0 mm 1 mps 719 mmHg 89%
    21:00 +19°C° 0 mm 1 mps 720 mmHg 89%
    22:00 +19°C° 0 mm 1 mps 720 mmHg 88%
    23:00 +19°C° 0 mm 1 mps 720 mmHg 88%
    Show more